DateTimeUTC,F1_A11,F1_S11,BsB_S11,BsG_S11,BsR_S11,BbsB_S11,BbsG_S11,BbsR_S11,BaB_A11,BaG_A11,BaR_A11,Tu_S11,T_S11,Uu_S11,U_S11,P_S11,T1_A11
2021-05-13T14:00:00Z,00000200,21000000,,,,,,,-000.20,-000.20,-000.01,16.9,23.5,01.2,00.8,0673.8,30.8
2021-05-13T14:01:00Z,00000200,21000000,,,,,,,0000.22,0000.10,-000.20,16.9,23.5,01.0,00.6,0673.9,30.8
2021-05-13T14:02:00Z,00000200,21000000,,,,,,,-000.39,-000.31,0000.20,16.9,23.5,00.9,00.6,0673.9,30.8
2021-05-13T14:03:00Z,00000200,61000000,,,,,,,-000.04,0000.28,0000.12,16.9,23.5,00.9,00.6,0673.9,30.8
2021-05-13T14:04:00Z,00000200,41000000,0000.33,0000.32,0000.34,-000.66,0000.02,-000.04,0000.35,-000.10,-000.33,17.0,23.3,01.0,00.7,0674.8,30.8
2021-05-13T14:05:00Z,00000200,01000000,0000.82,0000.52,0000.36,0000.27,-000.05,0000.14,0000.34,0000.18,0000.51,17.0,23.3,01.1,00.7,0674.9,30.8
2021-05-13T14:06:00Z,00000200,01000000,0000.94,0000.34,0000.30,-000.39,0000.04,0000.01,-000.25,0000.23,-000.31,17.0,23.2,01.0,00.7,0674.9,30.8
2021-05-13T14:07:00Z,00000200,01000000,0000.53,0000.26,0000.38,0000.50,0000.07,0000.05,0000.31,0000.09,-000.09,17.0,23.2,00.9,00.6,0674.9,30.8
2021-05-13T14:08:00Z,00000200,01000000,0000.08,0000.19,0000.13,0000.10,0000.48,-000.11,0000.07,0000.15,0000.44,17.0,23.2,00.9,00.6,0674.9,30.8
2021-05-13T14:09:00Z,00000200,01000000,0000.39,0000.46,-000.09,0000.27,0000.12,-000.02,-000.15,0000.11,-000.02,17.0,23.2,00.9,00.6,0674.9,30.8
2021-05-13T14:10:00Z,00000200,01000000,0000.90,0000.13,0000.34,0000.71,0000.07,0000.31,0000.52,-000.31,0000.03,17.0,23.2,00.9,00.6,0674.9,30.9
2021-05-13T14:11:00Z,00000200,01000000,0000.66,0000.18,0000.33,0000.22,-000.11,-000.03,-000.36,0000.10,0000.06,17.0,23.2,00.9,00.6,0674.9,30.9
2021-05-13T14:12:00Z,00000200,01000000,0000.75,0000.30,0000.28,0000.18,0000.11,-000.05,0000.16,0000.42,0000.22,17.1,23.3,00.8,00.6,0674.9,30.9
2021-05-13T14:13:00Z,00000200,01000000,-000.09,0000.47,0000.28,0000.01,0000.02,0000.22,0000.33,-000.05,0000.15,17.2,23.3,00.9,00.6,0674.9,30.9
2021-05-13T14:14:00Z,00000200,01000000,0000.56,0000.34,0000.23,0000.38,-000.10,-000.21,0000.28,0000.60,0000.13,17.2,23.4,00.8,00.6,0674.9,30.9
2021-05-13T14:15:00Z,00000200,01000000,0000.63,0000.47,0000.55,0000.17,0000.14,0000.06,-000.29,0000.11,0000.42,17.2,23.4,00.8,00.5,0674.9,30.9
2021-05-13T14:16:00Z,00000200,01000000,0001.04,0000.54,0000.52,-000.04,0000.00,-000.15,0000.44,-000.21,-000.23,17.3,23.4,00.8,00.5,0674.9,30.9
2021-05-13T14:17:00Z,00000200,01000000,0000.27,0000.57,0000.47,0000.18,0000.39,0000.15,0000.09,0000.31,0000.08,17.3,23.4,00.8,00.5,0674.9,30.9
2021-05-13T14:18:00Z,00000200,01000000,0000.35,0000.46,0000.35,-000.08,-000.06,-000.23,0000.22,-000.05,0000.08,17.3,23.4,00.7,00.5,0674.9,30.9
2021-05-13T14:19:00Z,00000200,01000000,0001.12,0000.34,0000.12,-000.38,-000.18,-000.09,0000.25,-000.05,0000.29,17.3,23.4,00.7,00.5,0674.9,30.9
2021-05-13T14:20:00Z,00000200,01000000,0000.82,0000.13,0000.11,-000.12,0000.16,-000.14,0000.23,0000.72,-000.05,17.2,23.4,00.6,00.4,0674.9,30.9
2021-05-13T14:21:00Z,00000200,01000000,0000.17,0000.14,0000.15,0000.37,0000.21,0000.16,0000.14,-000.22,0000.21,17.2,23.4,00.6,00.4,0674.9,30.9
2021-05-13T14:22:00Z,00000200,01000000,0000.77,0000.30,0000.35,0000.24,0000.24,-000.06,0000.16,0000.44,0000.04,17.2,23.4,00.6,00.4,0674.9,30.9
2021-05-13T14:23:00Z,00000200,01000000,0000.64,0000.40,0000.19,0000.10,0000.18,-000.33,0000.31,-000.07,0000.32,17.2,23.3,00.6,00.4,0674.9,30.9
2021-05-13T14:24:00Z,00000200,01000000,0000.29,-000.03,0000.03,0000.13,0000.12,0000.02,0000.02,0000.48,-000.36,17.2,23.3,00.6,00.4,0674.9,30.9
2021-05-13T14:25:00Z,00000200,01000000,0000.42,0000.10,0000.32,0000.26,-000.08,0000.10,0000.23,0000.08,0000.20,17.2,23.4,00.6,00.4,0674.9,30.9
2021-05-13T14:26:00Z,00000200,01000000,0000.64,0000.22,0000.26,-000.13,0000.21,-000.21,-000.07,-000.07,0000.20,17.3,23.4,00.5,00.4,0675.0,30.9
2021-05-13T14:27:00Z,00000200,01000000,0001.00,0000.42,-000.16,0000.21,0000.23,-000.17,0000.37,-000.03,0000.36,17.3,23.4,00.6,00.4,0675.0,30.9
2021-05-13T14:28:00Z,00000200,01000000,0000.46,0000.37,0000.25,0000.43,0000.14,-000.15,0000.07,0000.06,-000.14,17.3,23.4,00.5,00.3,0675.0,30.9
2021-05-13T14:29:00Z,00000200,01000000,0000.75,0000.60,0000.23,0000.30,-000.05,-000.10,0000.03,0000.13,-000.03,17.3,23.4,00.4,00.3,0675.0,30.9
2021-05-13T14:30:00Z,00000200,01000000,0001.09,0000.28,-000.03,0000.48,0000.22,-000.12,0000.11,0000.38,0000.13,17.3,23.4,00.5,00.3,0675.0,30.9
2021-05-13T14:31:00Z,00000200,01000000,0000.51,0000.45,0000.11,-000.11,0000.08,-000.15,0000.53,0000.09,0000.39,17.3,23.4,00.5,00.4,0675.0,30.9
2021-05-13T14:32:00Z,00000200,01000000,0000.58,0000.33,0000.39,0000.40,0000.01,0000.12,-000.13,0000.10,-000.15,17.3,23.4,00.5,00.3,0675.0,30.9
2021-05-13T14:33:00Z,00000200,01000000,0000.52,0000.27,0000.35,0000.61,0000.10,-000.16,0000.60,0000.39,0000.21,17.3,23.4,00.4,00.3,0675.0,30.9
2021-05-13T14:34:00Z,00000200,01000000,0001.18,0000.31,0000.47,-000.11,0000.12,-000.19,0000.01,-000.18,0000.01,17.3,23.4,00.5,00.3,0675.0,30.9
2021-05-13T14:35:00Z,00000200,01000000,0000.20,0000.17,0000.08,-000.09,0000.25,-000.25,-000.18,0000.15,0000.25,17.3,23.4,00.3,00.2,0675.0,30.9
2021-05-13T14:36:00Z,00000200,01000000,0001.06,0000.19,0000.07,0000.14,-000.07,-000.34,0000.23,-000.35,-000.04,17.3,23.4,00.5,00.3,0675.0,30.9
2021-05-13T14:37:00Z,00000200,01000000,0000.48,0000.13,0000.17,0000.05,0000.25,-000.10,0000.46,0000.61,0000.24,17.3,23.4,00.4,00.2,0675.0,30.9
2021-05-13T14:38:00Z,00000200,01000000,0000.34,0000.15,0000.16,-000.10,0000.09,-000.02,-000.04,0000.19,0000.33,17.3,23.4,00.3,00.2,0675.0,30.9
2021-05-13T14:39:00Z,00000200,01000000,0000.68,0000.45,0000.09,-000.10,0000.12,-000.28,0000.08,0000.32,-000.38,17.3,23.4,00.4,00.3,0675.0,30.9
2021-05-13T14:40:00Z,00000200,01000000,0000.24,0000.31,0000.39,0000.16,0000.18,-000.06,0000.36,0000.27,0000.82,17.3,23.4,00.3,00.2,0675.0,30.9
2021-05-13T14:41:00Z,00000200,01000000,0000.70,0000.33,-000.01,0000.19,-000.04,-000.28,0000.15,0000.12,-000.62,17.3,23.4,00.3,00.2,0675.0,30.9
2021-05-13T14:42:00Z,00000200,01000000,0000.54,0000.31,0000.41,0000.02,0000.19,0000.02,0000.09,-000.05,0000.25,17.3,23.4,00.4,00.3,0675.0,30.9
2021-05-13T14:43:00Z,00000200,01000000,0000.88,0000.37,0000.35,0000.20,0000.07,0000.17,0000.44,0000.23,0000.28,17.3,23.4,00.3,00.2,0675.0,30.9
2021-05-13T14:44:00Z,00000200,01000000,0000.64,0000.30,0000.20,0000.34,0000.05,0000.01,0000.14,0000.56,-000.00,17.2,23.4,00.4,00.3,0675.0,30.9
2021-05-13T14:45:00Z,00000200,01000000,0000.83,0000.43,0000.11,-000.06,-000.14,0000.07,0000.05,0000.06,0000.19,17.2,23.4,00.3,00.2,0675.0,30.9
2021-05-13T14:46:00Z,00000200,01000000,-000.08,0000.33,0000.41,0000.20,0000.10,-000.13,0000.45,0000.11,0000.15,17.2,23.4,00.3,00.2,0675.0,30.9
2021-05-13T14:47:00Z,00000200,01000000,-000.10,0000.04,0000.23,0000.30,0000.11,0000.13,-000.28,0000.06,0000.12,17.2,23.4,00.3,00.2,0675.0,30.9
2021-05-13T14:48:00Z,00000200,01000000,0000.53,0000.14,0000.23,0000.48,0000.04,0000.07,0000.00,-000.13,-000.17,17.2,23.3,00.3,00.2,0675.0,30.9
2021-05-13T14:49:00Z,00000200,01000000,0001.23,0000.12,0000.37,0000.14,0000.11,-000.06,0000.36,0000.31,0000.07,17.2,23.3,00.3,00.2,0675.0,30.9
2021-05-13T14:50:00Z,00000200,01000000,0000.37,0000.14,0000.30,0000.29,0000.25,-000.02,0000.20,0000.27,0000.37,17.2,23.3,00.3,00.2,0675.0,30.9
2021-05-13T14:51:00Z,00000200,01000000,0000.31,0000.48,0000.01,0000.13,0000.07,-000.09,0000.23,-000.06,0000.12,17.2,23.3,00.2,00.2,0675.0,30.9
2021-05-13T14:52:00Z,00000200,01000000,0000.45,0000.42,0000.28,0000.12,0000.05,-000.04,0000.34,0000.27,0000.05,17.2,23.3,00.3,00.2,0675.0,30.9
2021-05-13T14:53:00Z,00000200,01000000,0000.72,0000.29,0000.39,0000.26,-000.09,-000.37,0000.03,0000.33,0000.43,17.2,23.3,00.2,00.2,0675.0,30.9
2021-05-13T14:54:00Z,00000200,01000000,0000.44,0000.06,0000.43,0000.56,-000.14,0000.05,0000.39,0000.16,0000.12,17.2,23.3,00.3,00.2,0675.0,30.9
2021-05-13T14:55:00Z,00000200,01000000,0001.30,0000.21,0000.21,0000.25,0000.06,-000.01,-000.18,-000.04,-000.15,17.2,23.3,00.2,00.1,0675.0,30.9
2021-05-13T14:56:00Z,00000200,01000000,0000.32,0000.18,0000.40,0000.17,-000.09,0000.10,0000.34,0000.04,0000.04,17.2,23.4,00.2,00.2,0675.0,30.9
2021-05-13T14:57:00Z,00000200,41000000,,,,,,,0000.36,0000.96,0000.79,17.3,23.4,,00.0,0675.0,30.9
2021-05-13T14:58:00Z,00000200,61000000,,,,,,,-000.02,-000.79,-000.34,17.1,23.6,00.1,00.1,0674.0,30.9
2021-05-13T14:59:00Z,00000200,21000000,,,,,,,-000.53,0000.01,0000.06,17.1,23.7,,00.0,0674.0,30.9
